Weather in Novara

Italy     45°26′06″N   8°36′41″E
temp.,
°C
wind,
m/s
gust,
m/s
humid.,
%
clouds,
%
prec.,
mm/h
press.,
hPa
HPBL,
m
24 september, fri
fri2423:00+16nnw22795 0.0 102020
02:00+15n22850 0.0 102017
05:00+14n22870 0.0 101826
08:00+14n22840 0.0 101934
11:00+20ssw11660 0.0 1019472
14:00+23ssw22560 0.0 1017912
17:00+24ssw11530 0.0 1016947
20:00+19ene11690 0.0 101711
25 september, sat
sat2523:00+17n22820 0.0 101915
02:00+16nne238781 0.0 101939
05:00+15nne33865 0.0 102050
08:00+16nne238395 0.0 102168
11:00+20ene226712 0.0 1021530
14:00+23se115815 0.0 10211059
17:00+24sse115522 0.0 10191185
20:00+20wnw016899 0.0 102011
26 september, sun
sun2623:00+19nw2281100 0.6 102137
02:00+18n2384100 1.2 102175
05:00+18nne2284100 0.1 102043
08:00+18nne1187100 0.3 102016
11:00+18ssw1191100 0.9 102178
14:00+18nne1290100 1.3 1020192
17:00+19ene129098 0.2 1018237
20:00+18ne1193100 0.3 101820
27 september, mon
mon2723:00+18s019296 0.0 101814
02:00+16nw119599 0.0 101816
05:00+15nnw119461 0.0 101715
08:00+15nnw119193 0.0 101727
11:00+20nne01725 0.0 1018418
14:00+24sse11574 0.0 1017824
17:00+25sw12535 0.0 1016783
20:00+20se11712 0.0 101711
28 september, tue
tue2823:00+18n22800 0.0 101928
02:00+17nne346967 0.0 102060
05:00+16n2366100 0.0 102040
08:00+15n2367100 0.0 102048
11:00+21ne2252100 0.0 1020323
14:00+24e2249100 0.0 1019680
17:00+23ese1257100 0.0 1017799
20:00+19nw227064 0.0 101713